Simultaneous Nadir Overpasses (SNOs) Predictions

Prediction of SNOs between LANDSAT-8 and METOP-A Satellite Orbit:

Table of predicted SNOs for the next 14.0 days since TLE Epoch: 1/23/2021
Index Date (LANDSAT-8) Time (LANDSAT-8) Lat,Lon (LANDSAT-8) SZA (LANDSAT-8 ) Date (METOP-A) Time (METOP-A) Lat,Lon (METOP-A) SZA (METOP-A ) Distance(km) Time Diff (sec)
1 01/24/2021 12:46:31 81.43, 33.60 102.60 01/24/2021 12:45:28 81.43, 33.57 102.57 0.57 63
2 01/24/2021 13:35:58 -81.43,-158.86 77.43 01/24/2021 13:36:08 -81.42,-158.76 77.41 1.76 10
3 01/27/2021 08:20:45 81.43, 100.07 101.89 01/27/2021 08:19:49 81.43, 100.11 101.86 1.03 56
4 01/27/2021 09:10:12 -81.43, -92.37 78.14 01/27/2021 09:10:29 -81.42, -92.19 78.12 3.25 17
5 01/30/2021 03:55:00 81.43, 166.51 101.12 01/30/2021 03:54:11 81.42, 166.65 101.11 2.69 49
6 01/30/2021 04:44:27 -81.43, -25.91 78.90 01/30/2021 04:44:52 -81.42, -26.03 78.91 2.20 25
7 02/01/2021 23:29:15 81.43,-127.09 100.32 02/01/2021 23:28:34 81.43,-127.23 100.29 2.24 41
8 02/02/2021 00:18:42 -81.43, 40.51 79.70 02/02/2021 00:19:14 -81.42, 40.51 79.70 1.46 32
9 02/04/2021 19:03:29 81.43, -60.72 99.47 02/04/2021 19:02:55 81.42, -60.72 99.46 0.59 34



Historial Predications of SNOs between LANDSAT-8 and METOP-A
